N8DNY-13 Weather Reports


time (UTC)temp
C
wind
direction
speed
KPH
gust
KPH
rain 1hr
cm
rain 24hr
cm
rain mn
cm
humidity
%
barometer
mb
20260504081340 10 244 1.6 3.2 0.00 0.00 0.00 68 1011.2
20260504045713 11 253 3.2 4.8 0.00 0.00 0.00 62 1013.6
20260504044233 11 268 6.4 12.9 0.00 0.00 0.00 62 1013.6
20260504042710 11 251 3.2 4.8 0.00 0.00 0.00 62 1013.6
20260504041210 11 234 0.0 1.6 0.00 0.00 0.00 62 1013.9
20260504035700 11 275 0.0 3.2 0.00 0.00 0.00 61 1014.1
20260504034211 11 264 1.6 3.2 0.00 0.00 0.00 63 1014.1
20260504032650 11 268 0.0 1.6 0.00 0.00 0.00 67 1014.5
20260504031200 11 278 0.0 1.6 0.00 0.00 0.00 67 1014.5
20260504025650 11 219 6.4 12.9 0.00 0.00 0.00 67 1014.6
20260504024130 11 245 4.8 6.4 0.00 0.00 0.00 68 1014.8
20260504022620 11 245 3.2 4.8 0.00 0.00 0.00 69 1014.9
20260504021111 11 265 3.2 4.8 0.00 0.00 0.00 69 1015.1
20260504015610 11 279 0.0 1.6 0.00 0.00 0.00 68 1015.1
20260504014100 11 76 3.2 8.0 0.00 0.00 0.00 68 1015.1
20260504012611 11 267 0.0 1.6 0.00 0.00 0.00 68 1014.9
20260504011050 11 282 3.2 4.8 0.00 0.00 0.00 67 1015.0
20260504005540 11 279 0.0 1.6 0.00 0.00 0.00 66 1015.1
20260504004039 11 274 0.0 0.0 0.00 0.00 0.00 65 1015.1
20260504002530 12 261 0.0 1.6 0.00 0.00 0.00 63 1015.2
20260504001020 12 254 1.6 1.6 0.00 0.00 0.00 62 1015.4
20260503235520 12 277 0.0 0.0 0.00 0.00 0.00 61 1015.5
20260503234010 12 144 4.8 8.0 0.00 0.00 0.00 59 1015.6
20260503232502 13 235 6.4 8.0 0.00 0.00 0.00 59 1015.5
20260503231000 13 246 1.6 3.2 0.00 0.00 0.00 57 1015.6
20260503225450 14 211 3.2 4.8 0.00 0.00 0.00 53 1015.4
20260503223942 15 244 8.0 12.9 0.00 0.00 0.00 50 1015.3
20260503222440 15 283 3.2 4.8 0.00 0.00 0.00 46 1015.3
20260503220930 16 203 6.4 8.0 0.00 0.00 0.00 42 1015.0
20260503215423 18 286 3.2 6.4 0.00 0.00 0.00 39 1015.1
20260503213920 16 282 1.6 3.2 0.00 0.00 0.00 42 1015.1
20260503212410 17 243 3.2 4.8 0.00 0.00 0.00 41 1015.3
20260503210904 17 249 1.6 3.2 0.00 0.00 0.00 39 1015.2
20260503205400 19 223 3.2 6.4 0.00 0.00 0.00 35 1015.2
20260503203850 18 243 3.2 4.8 0.00 0.00 0.00 36 1015.4
20260503202346 18 241 11.3 12.9 0.00 0.00 0.00 34 1015.4
20260503200905 19 277 0.0 1.6 0.00 0.00 0.00 36 1015.8
20260503195344 18 235 3.2 6.4 0.00 0.00 0.00 34 1015.8
20260503193843 18 267 6.4 8.0 0.00 0.00 0.00 34 1016.0
20260503192341 19 235 11.3 20.9 0.00 0.00 0.00 34 1016.2
20260503190840 18 256 4.8 8.0 0.00 0.00 0.00 35 1016.3
20260503185358 18 242 3.2 4.8 0.00 0.00 0.00 35 1016.6
20260503183838 19 250 8.0 16.1 0.00 0.00 0.00 35 1016.9
20260503182335 19 290 3.2 4.8 0.00 0.00 0.00 35 1017.0
20260503180835 18 221 1.6 3.2 0.00 0.00 0.00 35 1017.1
20260503175333 18 213 8.0 9.7 0.00 0.00 0.00 33 1017.5
20260503173830 19 275 4.8 9.7 0.00 0.00 0.00 32 1017.4
20260503172350 17 243 8.0 12.9 0.00 0.00 0.00 35 1017.9
20260503170830 17 193 6.4 14.5 0.00 0.00 0.00 37 1017.8
20260503131247 10 242 3.2 6.4 0.00 0.00 0.00 52 1019.7